Disclaimer

Please do not use the information listed here in-flight or in-navigation, as they are not provided to us by the airports but are provided by volunteers, so they might be outdated.

Search


Regions


Airport information page

Radio informations:
Tower (TWR) - 119.7 MHz

Airport informations:
Latitude: 60° 53' 47.02" N
Longitude: 026° 56' 18.07" E
Elevation: 339 feet - 103 meters
Operating hours: N/A
Operating agency: Military
Timezone: UTC+2(+3DT) - Last Sunday in March to last Sunday in October
Fuel: 100/130 MIL Spec, low lead, aviation gasoline (BLUE)

Runway information:
07/25 - 6562 x 148 feet< - >2000 x 45 meters

Recent METARs:
EFUT 221950Z VRB03KT 9999 SCT008 BKN130 M13/M14 Q1012
EFUT 222020Z AUTO 18004KT 9999 BKN010 M14/M16 Q1012
EFUT 222050Z AUTO 20005KT 9999 OVC012 M13/M15 Q1012

Airport on the map: